This is the latest recevied weather packets stored in our database for station/object N3WGC-14. If no packets are shown the sender has not sent any weather packets the latest 1 day(s).
| Time | Temp. | Humidity | Pressure | Rain* | Wind** | Luminosity | Snow |
|---|---|---|---|---|---|---|---|
| 1778033985 | 21.67° C | 66% | 1011.3 hPa | 0 mm | 0.89 m/s, 109° | - | - |
| 1778033685 | 21.67° C | 65% | 1011.3 hPa | 0 mm | 0.45 m/s, 134° | - | - |
| 1778033384 | 21.67° C | 65% | 1011.3 hPa | 0 mm | 0.45 m/s, 116° | - | - |
| 1778033084 | 21.67° C | 65% | 1011.2 hPa | 0 mm | 0.89 m/s, 119° | - | - |
| 1778032784 | 21.67° C | 65% | 1011.3 hPa | 0 mm | 0.89 m/s, 97° | - | - |
| 1778032484 | 21.67° C | 65% | 1011.1 hPa | 0 mm | 0.45 m/s, 90° | - | - |
| 1778032184 | 21.67° C | 65% | 1011.1 hPa | 0 mm | 0.45 m/s, 113° | - | - |
| 1778031884 | 21.67° C | 65% | 1011.1 hPa | 0 mm | 2.24 m/s, 108° | - | - |
| 1778031584 | 21.67° C | 64% | 1011 hPa | 0 mm | 0.89 m/s, 146° | - | - |
| 1778031283 | 21.67° C | 64% | 1011.1 hPa | 0 mm | 0.45 m/s, 95° | - | - |
| 1778030983 | 22.22° C | 64% | 1011 hPa | 0 mm | 0.89 m/s, 146° | - | - |
| 1778030683 | 22.22° C | 63% | 1010.7 hPa | 0 mm | 0.89 m/s, 112° | - | - |
| 1778030383 | 22.22° C | 63% | 1010.6 hPa | 0 mm | 0.45 m/s, 98° | - | - |
| 1778030053 | 22.22° C | 62% | 1010.6 hPa | 0 mm | 0.89 m/s, 121° | - | - |
| 1778029753 | 22.22° C | 62% | 1010.5 hPa | 0 mm | 1.34 m/s, 100° | - | - |
| 1778029453 | 22.22° C | 61% | 1010.4 hPa | 0 mm | 0.89 m/s, 106° | - | - |
| 1778029152 | 22.78° C | 61% | 1010.4 hPa | 0 mm | 0.89 m/s, 125° | - | - |
| 1778028852 | 22.78° C | 60% | 1010.2 hPa | 0 mm | 0.89 m/s, 83° | - | - |
| 1778028552 | 22.78° C | 59% | 1010.1 hPa | 0 mm | 0.89 m/s, 121° | - | - |
| 1778028252 | 22.78° C | 59% | 1010 hPa | 0 mm | 0.89 m/s, 22° | - | - |
| 1778027952 | 22.78° C | 58% | 1010 hPa | 0 mm | 0.89 m/s, 115° | - | - |
| 1778027652 | 22.78° C | 58% | 1009.9 hPa | 0 mm | 1.34 m/s, 100° | - | - |
| 1778027351 | 23.33° C | 58% | 1010 hPa | 0 mm | 1.34 m/s, 117° | - | - |
| 1778027051 | 23.33° C | 58% | 1010 hPa | 0 mm | 0.89 m/s, 97° | - | - |
| 1778026751 | 23.33° C | 57% | 1010 hPa | 0 mm | 2.68 m/s, 110° | - | - |
* Rain latest hour (hover to see other rain measurements)
** Current wind speed in m/s (hover to see current wind gust speed)